Change the Weather History Date:

Wednesday, May 22, 2013

  Actual Average (KDAY) Record (KDAY)
Temperature  
Mean Temperature 72 °F 63 °F  
Max Temperature 78 °F 73 °F 92 °F (1902)
Min Temperature 65 °F 53 °F 34 °F (2002)
Degree Days  
Heating Degree Days 0 4  
Month to date heating degree days 139  
Since 1 July heating degree days 5590  
Cooling Degree Days 6 2  
Month to date cooling degree days 32  
Year to date cooling degree days 42  
Growing Degree Days 22 (Base 50)    
Moisture  
Dew Point 66 °F    
Average Humidity 88    
Maximum Humidity 100    
Minimum Humidity 67    
Precipitation  
Precipitation 0.00 in 0.15 in 1.68 in (1903)
Month to date precipitation 3.29  
Year to date precipitation 15.67  
Snow  
Snow 0.00 in 0.00 in 0.00 in ()
Month to date snowfall 0.0  
Since 1 July snowfall 23.3  
Snow Depth -    
Sea Level Pressure  
Sea Level Pressure 29.82 in    
Wind  
Wind Speed 9 mph (SSW)    
Max Wind Speed 18 mph    
Max Gust Speed 29 mph    
Visibility 10 miles    
Events Rain    
T = Trace of Precipitation, MM = Missing Value Source: NWS Daily Summary

Daily Weather History Graph

Daily Weather History Graph

Search for Another Location

Airport or City:

Trip Planner

Search our weather history database for the weather conditions in past years. The results will help you decide how hot, cold, wet, or windy it might be!

Date:

Astronomy

May. 22, 2013 Rise Set
Actual Time 6:17 AM EDT 8:51 PM EDT
Civil Twilight 5:46 AM EDT 9:22 PM EDT
Nautical Twilight 5:08 AM EDT 10:01 PM EDT
Astronomical Twilight 4:24 AM EDT 10:44 PM EDT
Moon 6:13 PM EDT (5/22) 4:20 AM EDT (5/22)
Length of Visible Light 15h 35m
Length of Day
14h 33m
Waxing Gibbous, 91% of the Moon is Illuminated
May 22
Waxing Gibbous
May 25
Full
May 31
Last Quarter
Jun 8
New
Jun 16
First Quarter

Hourly Weather History & Observations

Time (EDT) Temp. Dew Point Humidity Pressure Visibility Wind Dir Wind Speed Gust Speed Precip Events Conditions
12:15 AM 70.2 °F 64.8 °F 83% 29.85 in 10.0 mi SSW 9.2 mph - N/A   Clear
12:35 AM 68.9 °F 63.9 °F 84% 29.87 in 10.0 mi SSW 6.9 mph - N/A   Scattered Clouds
12:55 AM 68.9 °F 64.2 °F 85% 29.87 in 10.0 mi SSW 9.2 mph - N/A   Scattered Clouds
1:15 AM 68.9 °F 64.8 °F 87% 29.87 in 10.0 mi SSW 10.4 mph - N/A   Mostly Cloudy
1:35 AM 68.0 °F 64.4 °F 88% 29.86 in 10.0 mi SSW 9.2 mph - N/A   Scattered Clouds
1:55 AM 67.6 °F 64.8 °F 90% 29.85 in 10.0 mi South 5.8 mph - N/A   Scattered Clouds
2:15 AM 67.6 °F 64.9 °F 91% 29.84 in 10.0 mi South 8.1 mph - N/A   Clear
2:35 AM 67.6 °F 64.9 °F 91% 29.84 in 10.0 mi SSW 8.1 mph - N/A   Clear
2:55 AM 67.6 °F 64.9 °F 91% 29.83 in 10.0 mi South 6.9 mph - N/A   Clear
3:15 AM 67.6 °F 65.3 °F 92% 29.84 in 10.0 mi SSW 8.1 mph - N/A   Clear
3:35 AM 67.6 °F 65.5 °F 93% 29.83 in 10.0 mi South 8.1 mph - N/A   Scattered Clouds
3:55 AM 67.6 °F 66.2 °F 95% 29.83 in 10.0 mi South 6.9 mph - N/A   Scattered Clouds
4:15 AM 67.6 °F 66.2 °F 95% 29.82 in 10.0 mi SSW 6.9 mph - N/A   Clear
4:35 AM 67.6 °F 66.2 °F 95% 29.83 in 10.0 mi SSW 6.9 mph - N/A   Scattered Clouds
4:55 AM 67.3 °F 66.4 °F 97% 29.83 in 10.0 mi SSW 6.9 mph - N/A   Scattered Clouds
5:15 AM 65.3 °F 64.8 °F 98% 29.83 in 10.0 mi SSW 5.8 mph - N/A   Clear
5:35 AM 65.3 °F 64.8 °F 98% 29.83 in 10.0 mi South 4.6 mph - N/A   Clear
5:55 AM 67.6 °F 66.7 °F 97% 29.83 in 10.0 mi SSW 4.6 mph - N/A   Clear
6:15 AM 65.7 °F 65.1 °F 98% 29.84 in 10.0 mi South 5.8 mph - N/A   Clear
6:35 AM 67.6 °F 66.6 °F 96% 29.84 in 10.0 mi SSE 3.5 mph - N/A   Clear
6:55 AM 67.6 °F 66.2 °F 95% 29.84 in 10.0 mi South 5.8 mph - N/A   Clear
7:15 AM 67.6 °F 65.8 °F 94% 29.84 in 10.0 mi South 4.6 mph - N/A   Clear
7:35 AM 67.6 °F 65.1 °F 92% 29.84 in 10.0 mi South 5.8 mph - N/A   Scattered Clouds
7:55 AM 67.6 °F 65.1 °F 92% 29.84 in 10.0 mi South 9.2 mph - N/A   Mostly Cloudy
8:15 AM 67.6 °F 64.6 °F 90% 29.84 in 10.0 mi SSW 9.2 mph - N/A   Scattered Clouds
8:35 AM 68.9 °F 65.3 °F 88% 29.84 in 10.0 mi SSW 8.1 mph 11.5 mph N/A   Scattered Clouds
8:55 AM 68.9 °F 65.3 °F 88% 29.84 in 10.0 mi SSW 11.5 mph - N/A   Mostly Cloudy
9:15 AM 67.6 °F 64.4 °F 89% 29.85 in 10.0 mi SW 13.8 mph - N/A   Overcast
9:35 AM 69.1 °F 65.3 °F 88% 29.85 in 10.0 mi SSW 10.4 mph - N/A   Overcast
9:55 AM 70.2 °F 66.2 °F 87% 29.85 in 10.0 mi SSW 13.8 mph 17.3 mph N/A   Overcast
10:15 AM 72.7 °F 67.1 °F 83% 29.85 in 10.0 mi SSW 12.7 mph - N/A   Mostly Cloudy
10:35 AM 72.7 °F 67.1 °F 83% 29.83 in 10.0 mi South 11.5 mph 18.4 mph N/A   Mostly Cloudy
10:55 AM 72.7 °F 66.2 °F 80% 29.84 in 10.0 mi SSW 12.7 mph 18.4 mph N/A   Scattered Clouds
11:15 AM 72.7 °F 66.4 °F 81% 29.84 in 10.0 mi SW 12.7 mph 18.4 mph N/A   Scattered Clouds
11:35 AM 72.7 °F 65.7 °F 79% 29.84 in 10.0 mi SSW 9.2 mph - N/A   Scattered Clouds
11:55 AM 72.7 °F 65.3 °F 78% 29.84 in 10.0 mi SSW 13.8 mph - N/A   Clear
12:15 PM 72.7 °F 64.4 °F 75% 29.83 in 10.0 mi SSW 11.5 mph - N/A   Clear
12:35 PM 75.2 °F 65.8 °F 73% 29.83 in 10.0 mi SSW 11.5 mph - N/A   Scattered Clouds
12:55 PM 75.2 °F 65.8 °F 73% 29.83 in 10.0 mi South 11.5 mph - N/A   Scattered Clouds
1:15 PM 75.6 °F 65.7 °F 71% 29.82 in 10.0 mi SSW 12.7 mph 21.9 mph N/A   Clear
1:35 PM 77.9 °F 66.7 °F 68% 29.82 in 10.0 mi SW 16.1 mph 28.8 mph N/A   Scattered Clouds
1:55 PM 77.9 °F 66.6 °F 68% 29.81 in 10.0 mi SW 15.0 mph 20.7 mph N/A   Scattered Clouds
2:15 PM 75.2 °F 64.4 °F 69% 29.82 in 10.0 mi SW 18.4 mph 24.2 mph N/A   Mostly Cloudy
2:35 PM 76.3 °F 65.5 °F 69% 29.81 in 10.0 mi WSW 16.1 mph 24.2 mph N/A   Overcast
2:55 PM 75.2 °F 65.3 °F 71% 29.81 in 10.0 mi SW 13.8 mph 20.7 mph N/A   Mostly Cloudy
3:15 PM 75.2 °F 64.9 °F 70% 29.81 in 10.0 mi SW 15.0 mph 18.4 mph N/A   Mostly Cloudy
3:35 PM 75.2 °F 66.6 °F 74% 29.80 in 10.0 mi SW 10.4 mph 19.6 mph N/A   Mostly Cloudy
3:55 PM 76.5 °F 67.5 °F 74% 29.78 in 10.0 mi SW 15.0 mph 19.6 mph N/A   Mostly Cloudy
4:15 PM 78.3 °F 66.6 °F 67% 29.78 in 10.0 mi SW 16.1 mph - N/A   Scattered Clouds
4:35 PM 75.2 °F 65.5 °F 72% 29.77 in 10.0 mi SW 11.5 mph 20.7 mph N/A   Mostly Cloudy
4:55 PM 75.2 °F 65.8 °F 73% 29.76 in 10.0 mi SW 12.7 mph 19.6 mph N/A   Mostly Cloudy
5:15 PM 73.8 °F 67.3 °F 80% 29.77 in 7.0 mi West 11.5 mph 23.0 mph N/A Rain Light Rain
5:35 PM 72.7 °F 70.5 °F 93% 29.77 in 10.0 mi West 9.2 mph - N/A   Overcast
5:55 PM 72.7 °F 70.3 °F 92% 29.77 in 10.0 mi WSW 8.1 mph - N/A   Mostly Cloudy
6:15 PM 72.7 °F 70.5 °F 93% 29.77 in 10.0 mi WSW 5.8 mph - N/A   Mostly Cloudy
6:35 PM 72.7 °F 70.9 °F 94% 29.77 in 10.0 mi WSW 6.9 mph - N/A   Overcast
6:55 PM 72.7 °F 70.7 °F 93% 29.78 in 10.0 mi SW 8.1 mph - N/A   Overcast
7:15 PM 72.0 °F 70.0 °F 93% 29.79 in 10.0 mi WSW 11.5 mph - N/A   Overcast
7:35 PM 68.2 °F 67.3 °F 97% 29.78 in 10.0 mi SW 10.4 mph - N/A Rain Light Rain
7:55 PM 68.0 °F 67.8 °F 99% 29.78 in 10.0 mi SSW 9.2 mph - N/A Rain Light Rain
8:15 PM 67.6 °F 67.6 °F 100% 29.79 in 10.0 mi SSW 8.1 mph - N/A   Overcast
8:35 PM 67.6 °F 67.1 °F 98% 29.79 in 10.0 mi SSW 10.4 mph - N/A   Mostly Cloudy
8:55 PM 67.6 °F 67.5 °F 99% 29.79 in 10.0 mi SSW 5.8 mph - N/A   Mostly Cloudy
9:15 PM 67.6 °F 67.5 °F 99% 29.79 in 10.0 mi SW 5.8 mph - N/A   Mostly Cloudy
9:35 PM 67.6 °F 67.6 °F 100% 29.80 in 10.0 mi SW 3.5 mph - N/A   Scattered Clouds
9:55 PM 67.6 °F 67.6 °F 100% 29.80 in 10.0 mi SW 3.5 mph - N/A   Clear
10:15 PM 67.6 °F 67.6 °F 100% 29.80 in 10.0 mi SW 4.6 mph - N/A   Clear
10:35 PM 65.3 °F 65.3 °F 100% 29.81 in 7.0 mi SW 4.6 mph - N/A   Clear
10:55 PM 67.6 °F 67.6 °F 100% 29.81 in 10.0 mi SSW 6.9 mph - N/A   Scattered Clouds
11:15 PM 67.6 °F 67.6 °F 100% 29.80 in 10.0 mi SW 8.1 mph - N/A   Scattered Clouds
11:35 PM 67.6 °F 67.6 °F 100% 29.81 in 10.0 mi SW 8.1 mph - N/A   Clear
11:55 PM 65.7 °F 65.7 °F 100% 29.82 in 7.0 mi SW 8.1 mph - N/A   Clear